Weather History for Claresholm, AB

Change the Weather History Date:

Monday, October 7, 2013

  Actual Average Record
Temperature  
Mean Temperature 56 °F -  
Max Temperature 66 °F - - ()
Min Temperature 45 °F - - ()
Degree Days  
Heating Degree Days 10    
Growing Degree Days 6 (Base 50)    
Moisture  
Dew Point 26 °F    
Average Humidity 33    
Maximum Humidity 62    
Minimum Humidity 11    
Precipitation  
Precipitation 0.00 in - - ()
Sea Level Pressure  
Sea Level Pressure 29.67 in    
Wind  
Wind Speed 9 mph ()    
Max Wind Speed 23 mph    
Max Gust Speed 34 mph    
T = Trace of Precipitation, MM = Missing Value Source: Averaged Metar Reports

Daily Weather History Graph

Daily Weather History Graph

Search for Another Location

Airport:

Trip Planner

Search our weather history database for the weather conditions in past years. The results will help you decide how hot, cold, wet, or windy it might be!

Date:

Astronomy

Oct. 07, 2013 Rise Set
Actual Time 7:44 AM MDT 6:59 PM MDT
Civil Twilight 7:12 AM MDT 7:31 PM MDT
Nautical Twilight 6:34 AM MDT 8:08 PM MDT
Astronomical Twilight 5:56 AM MDT 8:46 PM MDT
Moon 10:57 AM MDT (10/7) 8:27 PM MDT (10/7)
Length of Visible Light 12h 19m
Length of Day
11h 14m
Waxing Crescent, 9% of the Moon is Illuminated
Oct 7
Waxing Crescent
Oct 11
First Quarter
Oct 18
Full
Oct 26
Last Quarter
Nov 3
New

Hourly Weather History & Observations

Time (MDT) Temp. Windchill Dew Point Humidity Pressure Visibility Wind Dir Wind Speed Gust Speed Precip Events Conditions
12:00 AM 51 °F - 26 °F 25% 29.84 in - East 3.5 mph - -  
12:00 AM 50.7 °F - 25.9 °F 38% 29.84 in - East 3.5 mph - N/A   Unknown
1:00 AM 48.7 °F - 27.0 °F 43% 29.80 in - East 5.8 mph - N/A   Unknown
2:00 AM 51.1 °F - 24.1 °F 35% 29.77 in - ENE 2.3 mph - N/A   Unknown
3:00 AM 56.8 °F - 22.8 °F 27% 29.74 in - SW 11.5 mph - N/A   Unknown
4:00 AM 60.4 °F - 20.1 °F 21% 29.72 in - SSW 4.6 mph - N/A   Unknown
5:00 AM 54.5 °F - 22.5 °F 29% 29.70 in - South 8.1 mph - N/A   Unknown
6:00 AM 51 °F - 24 °F 22% 29.69 in - East 6.9 mph - -  
6:00 AM 50.5 °F - 23.5 °F 35% 29.69 in - East 6.9 mph - N/A   Unknown
7:00 AM 56.1 °F - 24.1 °F 29% 29.66 in - SW 13.8 mph 19.6 mph N/A   Unknown
8:00 AM 51.3 °F - 27.1 °F 39% 29.66 in - SSE 11.5 mph - N/A   Unknown
9:00 AM 53.6 °F - 26.8 °F 36% 29.65 in - SSW 8.1 mph - N/A   Unknown
10:00 AM 54.3 °F - 25.3 °F 33% 29.65 in - South 13.8 mph - N/A   Unknown
11:00 AM 61.5 °F - 24.8 °F 25% 29.63 in - South 12.7 mph - N/A   Unknown
12:00 PM 66 °F - 24 °F 11% 29.62 in - West 15.0 mph - -  
12:00 PM 65.7 °F - 24.1 °F 21% 29.62 in - West 15.0 mph 20.7 mph N/A   Unknown
1:00 PM 65.3 °F - 25.5 °F 22% 29.61 in - West 20.7 mph 28.8 mph N/A   Unknown
2:00 PM 64.4 °F - 24.3 °F 22% 29.59 in - West 19.6 mph 27.6 mph N/A   Unknown
3:00 PM 63.0 °F - 23.5 °F 22% 29.59 in - West 21.9 mph 34.5 mph N/A   Unknown
4:00 PM 61.5 °F - 24.1 °F 24% 29.62 in - West 23.0 mph 31.1 mph N/A   Unknown
5:00 PM 60.6 °F - 26.8 °F 28% 29.63 in - WSW 17.3 mph 23.0 mph N/A   Unknown
6:00 PM 56 °F - 30 °F 25% 29.63 in - WSW 17.3 mph - -  
6:00 PM 55.9 °F - 30.0 °F 37% 29.63 in - WSW 17.3 mph - N/A   Unknown
7:00 PM 49.8 °F - 31.8 °F 50% 29.64 in - SW 18.4 mph - N/A   Unknown
8:00 PM 48.0 °F - 31.5 °F 53% 29.62 in - SW 16.1 mph 24.2 mph N/A   Unknown
9:00 PM 45.1 °F 40.8 °F 32.9 °F 62% 29.62 in - WSW 8.1 mph - N/A   Unknown
10:00 PM 45.7 °F 41.0 °F 31.1 °F 57% 29.61 in - WSW 9.2 mph - N/A   Unknown
11:00 PM 46.8 °F - 30.6 °F 53% 29.60 in - West 8.1 mph - N/A   Unknown